Starlink 31057

operational
NORAD ID: 58545 Int'l Des: 2023-192 Owner: SPXS Country: US Constellation: starlink
LEOCIRCULAR

About Starlink 31057

Description loading...

Live Position

Loading 3D Globe...

Upcoming Passes

Altitude History

Altitude vs Time

uPlot chart will show altitude changes over time

Two-Line Element Set

1 58545U 23192Q 25343.82441772 .00000663 00000-0 34494-4 0 9999
2 58545 53.1600 120.3644 0000913 102.4302 257.6801 15.30199029112225
Epoch: Dec 9, 2025 • Age: 22 hours

Current Status

Altitude 480.9 km
Velocity 7.63 km/s
Sub-Earth Point 52.09°N, 129.27°W
Launch Date Dec 8, 2023
Age 2 years
Type internet

Technical Details

Classification Payload
Mass 730.00 kg
Dry Mass 700.00 kg
Total Mass 730.00 kg
Length 0.30 m
Diameter 4.10 m
Span 29.00 m
Shape Box + pan
Manufacturer SPXS
Bus Type Starlink V2M
Phase Status In Orbit
Owner/State SPXS/US

Large Constellations

Loading constellations...